[[{"header":{"parameterUnit":"m.s-1","parameterCategory":2,"la1":30.2992,"la2":30.254,"lo1":-89.0895,"lo2":-89.0443,"dy":0.0025,"dx":0.0025,"nx":19,"ny":19,"refTime":"2026-03-16T21:00:00:Z","depth":"0","parameterNumber":2,"parameterNumberName":"U-component_of_CURRENTS"},"data":[0,0,0,0.129,0.1291,0.1308,0.1308,0.1243,0.1242,0,0,0,0,0,0,0,0,0,0,0,0.1271,0.1272,0.129,0.1291,0.1308,0.1308,0.1243,0.1242,0,0,0,0,0,0,0,0,0,0,0,0.1271,0.1272,0.1272,0.1291,0.1308,0.1308,0.1243,0.1247,0,0,0,0,0,0,0,0,0,0,0.1239,0.1243,0.1272,0.1272,0.1292,0.1308,0.1308,0.1248,0.1246,0.1217,0,0.1227,0,0.1246,0.1238,0.1237,0,0,0,0.127,0.1244,0.1254,0.1272,0.1292,0.1308,0.1295,0.1248,0.1246,0.1215,0.1227,0.1225,0.1245,0.1237,0.1237,0.1251,0.1252,0,0,0.127,0.1265,0.1255,0.1253,0.1305,0.1294,0.1295,0.1247,0.1244,0.1227,0.1225,0.1244,0.1237,0.1236,0.125,0.1251,0,0,0,0.1281,0.1264,0.1276,0.1255,0.1272,0.1295,0.1296,0.1246,0.1252,0.1224,0.1243,0.1236,0.1236,0.125,0.1251,0.1348,0,0,0,0.1279,0.1273,0.1276,0.1272,0.1274,0.1273,0.1296,0.1255,0.1251,0.1244,0.1236,0.1235,0.1249,0.125,0.1344,0.1325,0,0,0,0.1269,0.1272,0.1278,0.1272,0.1291,0.1275,0.1277,0.1254,0.1263,0.1237,0.1235,0.1248,0.125,0.1341,0.1321,0.134,0,0,0,0.1257,0.1258,0.1277,0.1289,0.1291,0.1333,0.1278,0.1287,0.1271,0.1236,0.1249,0.1251,0.1339,0.1318,0.1337,0.1251,0.1256,0,0,0.1248,0.1256,0.1265,0.1284,0.1325,0.1329,0.1377,0.1325,0.1283,0.1253,0.1254,0.1346,0.1321,0.1339,0.134,0.1342,0,0,0,0.1256,0.126,0.1279,0.1307,0.1348,0.1384,0.1377,0.1383,0.1371,0.1287,0.135,0.1329,0.1339,0.1282,0.1284,0.1245,0.1258,0.1258,0.1257,0.1223,0.1254,0.1272,0.1319,0.1358,0.1423,0.1451,0.1453,0.143,0.1452,0.1416,0.1495,0.1439,0.1439,0.1402,0.1454,0.1454,0.1455,0.1455,0.1202,0.121,0.1259,0.1282,0.1351,0.1398,0.149,0.151,0.1547,0.1516,0.1522,0.1394,0.1446,0.1406,0.1461,0.146,0.1459,0.1459,0.1458,0.1172,0.1178,0.1193,0.1235,0.1288,0.1375,0.1431,0.1518,0.1568,0.1601,0.1505,0.1502,0.1455,0.161,0.161,0.161,0.1611,0.1611,0.1611,0.113,0.1148,0.115,0.1194,0.1215,0.1281,0.1399,0.1442,0.1513,0.1553,0.1552,0.147,0.154,0.1521,0.1611,0.1611,0.1611,0.1611,0.1611,0.1092,0.1104,0.1104,0.1114,0.116,0.118,0.1288,0.1355,0.1418,0.1434,0.145,0.1531,0.147,0.1466,0.1444,0.1509,0.1509,0.1509,0.1509,0.1063,0.1072,0.1061,0.1064,0.1088,0.1137,0.113,0.1205,0.131,0.1341,0.1391,0.1359,0.1365,0.1296,0.1297,0.127,0.129,0.129,0.1289,0.1039,0.1044,0.1019,0.1029,0.1049,0.1065,0.1038,0.1055,0.1186,0.1281,0.1361,0.137,0.1326,0.1338,0.123,0.1234,0.1189,0,0]},{"header":{"parameterUnit":"m.s-1","parameterCategory":2,"la1":30.2992,"la2":30.254,"lo1":-89.0895,"lo2":-89.0443,"dy":0.0025,"dx":0.0025,"nx":19,"ny":19,"refTime":"2026-03-16T21:00:00:Z","depth":"0","parameterNumber":3,"parameterNumberName":"V-component_of_CURRENTS"},"data":[0,0,0,-0.0015,-0.0015,-0.0058,-0.0058,-0.0095,-0.0095,0,0,0,0,0,0,0,0,0,0,0,0.0009,0.0009,-0.0014,-0.0015,-0.0058,-0.0058,-0.0095,-0.0095,0,0,0,0,0,0,0,0,0,0,0,0.0009,0.0009,0.0009,-0.0016,-0.0058,-0.0058,-0.0095,-0.0067,0,0,0,0,0,0,0,0,0,0,-0.0028,-0.0012,0.0009,0.0009,-0.0016,-0.0058,-0.0058,-0.0066,-0.0069,-0.0069,0,-0.0069,0,-0.0085,-0.0097,-0.0097,0,0,0,-0.0017,-0.001,-0.0019,0.0009,-0.0016,-0.0058,-0.0039,-0.0068,-0.0071,-0.0073,-0.007,-0.0072,-0.0086,-0.0097,-0.0097,-0.0103,-0.0103,0,0,-0.0015,-0.0004,-0.0017,-0.0021,-0.0018,-0.0038,-0.0041,-0.007,-0.007,-0.007,-0.0073,-0.0087,-0.0097,-0.0097,-0.0103,-0.0103,0,0,0,-0.0007,-0.0002,-0.0011,-0.0019,-0.0029,-0.0039,-0.0042,-0.0069,-0.0071,-0.0073,-0.0087,-0.0097,-0.0098,-0.0103,-0.0103,-0.0046,0,0,0,-0.0006,0.0003,-0.0009,-0.0004,-0.0029,-0.0054,-0.0041,-0.0069,-0.0073,-0.0087,-0.0097,-0.0098,-0.0103,-0.0103,-0.0048,0.0003,0,0,0,0.0009,0.0004,0.0003,-0.0003,-0.0022,-0.0054,-0.0058,-0.007,-0.0081,-0.0097,-0.0098,-0.0104,-0.0103,-0.005,-0.0001,0.0043,0,0,0,0.0017,0.003,0.0003,0.0014,-0.0021,-0.0032,-0.0058,-0.0074,-0.0085,-0.0097,-0.0103,-0.0103,-0.005,-0.0004,0.004,0.007,0.0085,0,0,0.0041,0.0033,0.0041,0.0016,0.0025,-0.0027,-0.0019,-0.0048,-0.008,-0.0093,-0.0094,-0.0047,-0.0002,0.0042,0.0089,0.0103,0,0,0,0.0054,0.0063,0.0059,0.0057,0.0035,0.0031,-0.0015,-0.0031,-0.0048,-0.0085,-0.0057,-0.0029,-0.0003,0.0008,0.0019,-0.0037,-0.0102,-0.0102,-0.0102,0.0097,0.0092,0.0112,0.0105,0.0098,0.0065,0.0062,0.0033,-0.0016,-0.0017,0.0009,0.0074,0.0085,0.0095,0.0036,-0.0014,-0.0014,-0.0014,-0.0014,0.0143,0.0159,0.0159,0.0175,0.0168,0.0167,0.0143,0.0114,0.0113,0.0056,0.0077,0.0058,0.0111,0.0043,-0.001,-0.0011,-0.0011,-0.0011,-0.0012,0.017,0.0181,0.019,0.0222,0.0251,0.0235,0.0278,0.0239,0.0187,0.0204,0.0202,0.0201,0.0151,0.0203,0.0204,0.0204,0.0204,0.0205,0.0205,0.0193,0.0207,0.0239,0.0273,0.0301,0.0345,0.0353,0.0359,0.0336,0.0288,0.0287,0.0168,0.0141,0.0142,0.0211,0.021,0.0209,0.0209,0.0208,0.0233,0.0233,0.0283,0.0315,0.0392,0.0465,0.0474,0.0496,0.0485,0.0485,0.0312,0.0327,0.0318,0.0308,0.0313,0.0423,0.0423,0.0423,0.0423,0.0256,0.0261,0.0327,0.0387,0.0465,0.0523,0.0602,0.0604,0.0499,0.0426,0.0368,0.0304,0.0298,0.0283,0.0273,0.0275,0.0373,0.0373,0.0372,0.0287,0.0302,0.0353,0.0407,0.0497,0.0583,0.0657,0.0671,0.0499,0.0362,0.0287,0.029,0.0183,0.0178,0.0139,0.013,0.0127,0,0]}],[{"header":{"parameterUnit":"m.s-1","parameterCategory":2,"la1":30.2992,"la2":30.254,"lo1":-89.0895,"lo2":-89.0443,"dy":0.0025,"dx":0.0025,"nx":19,"ny":19,"refTime":"2026-03-16T21:00:00:Z","depth":"2","parameterNumber":2,"parameterNumberName":"U-component_of_CURRENTS"},"data":[0,0,0,0.1289,0.129,0.1318,0.1318,0.1272,0.1272,0,0,0,0,0,0,0,0,0,0,0,0.1266,0.1266,0.1289,0.129,0.1318,0.1318,0.1272,0.1272,0,0,0,0,0,0,0,0,0,0,0,0.1265,0.1266,0.1266,0.1291,0.1318,0.1318,0.1273,0.1267,0,0,0,0,0,0,0,0,0,0,0.1248,0.1248,0.1266,0.1266,0.1291,0.1318,0.1318,0.1267,0.1267,0.1243,0,0.1254,0,0.1275,0.1269,0.1269,0,0,0,0.127,0.1249,0.1259,0.1266,0.1291,0.1318,0.13,0.1268,0.1268,0.1242,0.1254,0.1253,0.1274,0.1269,0.1268,0.1296,0.1297,0,0,0.1269,0.1264,0.126,0.1259,0.1306,0.1299,0.1301,0.1268,0.1267,0.1253,0.1252,0.1274,0.1268,0.1268,0.1296,0.1296,0,0,0,0.1278,0.1263,0.1275,0.126,0.128,0.1301,0.1303,0.1268,0.1274,0.1252,0.1273,0.1268,0.1267,0.1295,0.1296,0.1387,0,0,0,0.1276,0.127,0.1275,0.1271,0.1281,0.1288,0.1303,0.1276,0.1274,0.1273,0.1268,0.1267,0.1294,0.1295,0.1383,0.1366,0,0,0,0.1263,0.1269,0.1275,0.1271,0.1294,0.1289,0.1292,0.1276,0.1287,0.1269,0.1267,0.1294,0.1295,0.138,0.1362,0.1378,0,0,0,0.1252,0.1254,0.1275,0.1288,0.1294,0.1341,0.1293,0.1309,0.13,0.1268,0.1294,0.1296,0.1378,0.1359,0.1375,0.1269,0.1272,0,0,0.1245,0.1253,0.1262,0.1282,0.1325,0.1335,0.1388,0.1347,0.1314,0.1293,0.1295,0.1385,0.1361,0.1377,0.1359,0.1358,0,0,0,0.1254,0.1258,0.1277,0.1308,0.1351,0.1391,0.1394,0.1406,0.1403,0.1321,0.139,0.1371,0.1379,0.1311,0.1312,0.1303,0.1303,0.1303,0.1303,0.1227,0.1256,0.1275,0.1321,0.1363,0.1434,0.1465,0.1477,0.146,0.1485,0.1454,0.1529,0.1461,0.1459,0.1491,0.1491,0.1492,0.1492,0.1492,0.121,0.1217,0.1266,0.129,0.1361,0.1413,0.151,0.1532,0.1575,0.155,0.1555,0.1419,0.1464,0.1499,0.1498,0.1497,0.1496,0.1496,0.1495,0.1183,0.1189,0.1204,0.1248,0.1306,0.1396,0.1455,0.1546,0.1597,0.1628,0.1521,0.1518,0.1545,0.1637,0.1637,0.1637,0.1637,0.1637,0.1637,0.1145,0.1162,0.1166,0.1212,0.1235,0.1306,0.1428,0.1468,0.153,0.1564,0.1563,0.1576,0.1571,0.1551,0.1638,0.1638,0.1637,0.1637,0.1637,0.111,0.1122,0.1124,0.1135,0.1184,0.1203,0.1313,0.1364,0.1423,0.1427,0.1529,0.1531,0.1472,0.1469,0.1446,0.15,0.15,0.15,0.15,0.1085,0.1093,0.1085,0.109,0.1113,0.116,0.1136,0.1179,0.1289,0.1333,0.134,0.1304,0.1313,0.1242,0.1245,0.1215,0.1209,0.1209,0.1208,0.1064,0.1068,0.1046,0.1056,0.1076,0.1086,0.1036,0.0986,0.1056,0.1198,0.1307,0.1477,0.1442,0.1449,0.1351,0.1351,0.1309,0,0]},{"header":{"parameterUnit":"m.s-1","parameterCategory":2,"la1":30.2992,"la2":30.254,"lo1":-89.0895,"lo2":-89.0443,"dy":0.0025,"dx":0.0025,"nx":19,"ny":19,"refTime":"2026-03-16T21:00:00:Z","depth":"2","parameterNumber":3,"parameterNumberName":"V-component_of_CURRENTS"},"data":[0,0,0,0.0068,0.0067,0.003,0.003,0.0005,0.0005,0,0,0,0,0,0,0,0,0,0,0,0.0086,0.0086,0.0068,0.0067,0.003,0.003,0.0005,0.0005,0,0,0,0,0,0,0,0,0,0,0,0.0087,0.0086,0.0086,0.0067,0.003,0.003,0.0005,0.0027,0,0,0,0,0,0,0,0,0,0,0.006,0.0072,0.0086,0.0086,0.0067,0.003,0.003,0.0027,0.0025,0.0029,0,0.0029,0,0.0015,0.0004,0.0004,0,0,0,0.0064,0.0074,0.0066,0.0086,0.0066,0.003,0.0046,0.0026,0.0024,0.0026,0.0028,0.0027,0.0015,0.0004,0.0004,0.0002,0.0002,0,0,0.0066,0.0076,0.0068,0.0065,0.0064,0.0047,0.0045,0.0024,0.0025,0.0028,0.0026,0.0014,0.0004,0.0003,0.0002,0.0002,0,0,0,0.0074,0.0078,0.007,0.0066,0.0057,0.0046,0.0043,0.0025,0.0023,0.0026,0.0014,0.0003,0.0003,0.0002,0.0002,0.0045,0,0,0,0.0075,0.0082,0.0071,0.0076,0.0058,0.0037,0.0045,0.0025,0.0022,0.0014,0.0003,0.0003,0.0002,0.0002,0.0044,0.0092,0,0,0,0.0087,0.0083,0.0082,0.0077,0.0061,0.0037,0.0033,0.0024,0.0015,0.0004,0.0003,0.0002,0.0002,0.0043,0.0089,0.0123,0,0,0,0.0094,0.0104,0.0082,0.0092,0.0062,0.0052,0.0033,0.0019,0.001,0.0003,0.0002,0.0002,0.0043,0.0087,0.0121,0.0133,0.0144,0,0,0.0112,0.0106,0.0113,0.0093,0.0103,0.0056,0.0063,0.004,0.0015,0.0009,0.0009,0.0045,0.0089,0.0123,0.0144,0.0155,0,0,0,0.0122,0.013,0.0128,0.0129,0.0111,0.0108,0.0068,0.0052,0.0038,0.0011,0.0036,0.0063,0.0083,0.0085,0.0093,0.0003,0.0003,0.0003,0.0003,0.0157,0.0156,0.0174,0.0171,0.0166,0.0137,0.0133,0.0105,0.0064,0.0061,0.0091,0.0141,0.0142,0.0149,0.0067,0.0067,0.0067,0.0067,0.0067,0.0196,0.0211,0.0215,0.0231,0.0228,0.0227,0.0203,0.0175,0.0172,0.0124,0.0141,0.0122,0.0161,0.0071,0.007,0.007,0.0069,0.0069,0.0069,0.0219,0.023,0.0239,0.0271,0.03,0.0287,0.0324,0.0288,0.0236,0.0249,0.0239,0.0238,0.0188,0.0246,0.0247,0.0247,0.0247,0.0248,0.0248,0.0239,0.0253,0.0283,0.0316,0.0344,0.0386,0.0394,0.0393,0.036,0.0311,0.031,0.0202,0.0196,0.0199,0.0253,0.0252,0.0252,0.0251,0.0251,0.0273,0.0274,0.0321,0.0352,0.0426,0.0491,0.0499,0.0501,0.0483,0.047,0.0339,0.0335,0.033,0.0322,0.0327,0.0412,0.0412,0.0412,0.0412,0.0293,0.0299,0.0361,0.0417,0.049,0.0542,0.0597,0.0575,0.0503,0.0442,0.0441,0.039,0.0383,0.0376,0.0367,0.0371,0.0468,0.0469,0.0469,0.0321,0.0335,0.0383,0.0435,0.0519,0.0592,0.0639,0.0603,0.049,0.047,0.0442,0.0417,0.0335,0.0327,0.0308,0.0297,0.03,0,0]}],[{"header":{"parameterUnit":"m.s-1","parameterCategory":2,"la1":30.2992,"la2":30.254,"lo1":-89.0895,"lo2":-89.0443,"dy":0.0025,"dx":0.0025,"nx":19,"ny":19,"refTime":"2026-03-16T21:00:00:Z","depth":"4","parameterNumber":2,"parameterNumberName":"U-component_of_CURRENTS"},"data":[0,0,0,0.0801,0.0802,0.0839,0.0839,0.0926,0.0927,0,0,0,0,0,0,0,0,0,0,0,0.081,0.081,0.0801,0.0802,0.0838,0.0839,0.0926,0.0927,0,0,0,0,0,0,0,0,0,0,0,0.081,0.081,0.0811,0.0802,0.0838,0.0839,0.0926,0.0892,0,0,0,0,0,0,0,0,0,0,0.0853,0.0847,0.081,0.0811,0.0802,0.0838,0.0839,0.089,0.0894,0.0915,0,0.0927,0,0.0913,0.0932,0.0932,0,0,0,0.0818,0.0844,0.0849,0.0811,0.0802,0.0838,0.0826,0.0892,0.0897,0.0921,0.0928,0.093,0.0915,0.0932,0.0933,0.101,0.101,0,0,0.0816,0.0821,0.0846,0.0852,0.082,0.0825,0.0827,0.0894,0.0906,0.0928,0.0931,0.0916,0.0933,0.0934,0.1009,0.101,0,0,0,0.0799,0.082,0.0823,0.0849,0.0844,0.0826,0.0828,0.0904,0.0904,0.0932,0.0917,0.0933,0.0934,0.1009,0.101,0.0995,0,0,0,0.0799,0.0808,0.0823,0.0827,0.0843,0.0867,0.0837,0.09,0.0906,0.0917,0.0933,0.0935,0.1009,0.1009,0.0995,0.1003,0,0,0,0.0807,0.0808,0.0814,0.0827,0.0832,0.0865,0.087,0.0901,0.0896,0.0932,0.0935,0.1009,0.1009,0.0995,0.1002,0.1022,0,0,0,0.0808,0.0818,0.0815,0.0819,0.0831,0.0835,0.087,0.089,0.0919,0.0934,0.1009,0.1009,0.0995,0.1002,0.1022,0.0915,0,0,0,0.0816,0.0819,0.0817,0.0814,0.0806,0.0831,0.0846,0.0903,0.0938,0.0992,0.0994,0.0995,0.1002,0.1022,0.0952,0,0,0,0,0.0815,0.082,0.0816,0.0813,0.0812,0.0835,0.0872,0.09,0.0965,0.0954,0.1012,0.1017,0.103,0.0966,0.1012,0.1012,0.1012,0.1012,0.1012,0.0825,0.0817,0.0813,0.0812,0.0821,0.0845,0.0876,0.0929,0.0956,0.0989,0.1017,0.104,0.0972,0.1023,0.1023,0.1023,0.1023,0.1023,0.1023,0.0821,0.0808,0.0818,0.0821,0.0836,0.0863,0.0907,0.0938,0.1006,0.102,0.1032,0.097,0.1022,0.1022,0.1022,0.1023,0.1023,0.1023,0.1023,0.0806,0.0799,0.0818,0.0831,0.0858,0.0888,0.0923,0.0972,0.1013,0.1031,0.099,0.1046,0.1035,0.1049,0.1049,0.105,0.105,0.105,0.105,0.0776,0.079,0.0809,0.084,0.0857,0.0894,0.0951,0.0973,0.1017,0.0982,0.1048,0.105,0.1049,0.1038,0.1052,0.1051,0.1051,0.1051,0.1051,0.074,0.0767,0.0783,0.0807,0.0842,0.0853,0.0924,0.0932,0.0955,0.0942,0.0951,0.0956,0.0958,0.096,0.0945,0.0933,0.0931,0.093,0,0.0715,0.0729,0.0747,0.0764,0.0774,0.0817,0.0808,0.084,0.0873,0.0848,0.0959,0.0969,0.0971,0.0974,0.0973,0.0956,0,0,0,0.069,0.0701,0.0698,0.0726,0.0729,0.0743,0.0796,0.0781,0.0871,0.085,0.0897,0.0906,0.0992,0.1057,0.1073,0.1072,0.1055,0,0]},{"header":{"parameterUnit":"m.s-1","parameterCategory":2,"la1":30.2992,"la2":30.254,"lo1":-89.0895,"lo2":-89.0443,"dy":0.0025,"dx":0.0025,"nx":19,"ny":19,"refTime":"2026-03-16T21:00:00:Z","depth":"4","parameterNumber":3,"parameterNumberName":"V-component_of_CURRENTS"},"data":[0,0,0,0.0112,0.0112,0.0111,0.0111,0.0104,0.0104,0,0,0,0,0,0,0,0,0,0,0,0.0111,0.0111,0.0112,0.0112,0.0111,0.0111,0.0104,0.0104,0,0,0,0,0,0,0,0,0,0,0,0.0111,0.0111,0.0111,0.0112,0.0111,0.0111,0.0104,0.0105,0,0,0,0,0,0,0,0,0,0,0.0106,0.0111,0.0111,0.0111,0.0112,0.0111,0.0111,0.0105,0.0105,0.0105,0,0.0107,0,0.0108,0.0104,0.0104,0,0,0,0.0107,0.0111,0.0109,0.0111,0.0112,0.0111,0.011,0.0105,0.0105,0.0104,0.0107,0.0107,0.0108,0.0104,0.0104,0.0112,0.0112,0,0,0.0107,0.0111,0.0109,0.0109,0.0116,0.011,0.011,0.0105,0.0107,0.0107,0.0107,0.0108,0.0104,0.0104,0.0112,0.0112,0,0,0,0.0111,0.0111,0.011,0.011,0.0111,0.011,0.011,0.0107,0.0107,0.0107,0.0108,0.0104,0.0104,0.0112,0.0112,0.0123,0,0,0,0.0111,0.0114,0.011,0.0112,0.0112,0.0111,0.0113,0.0107,0.0106,0.0108,0.0104,0.0104,0.0111,0.0112,0.0122,0.0142,0,0,0,0.0111,0.0114,0.0114,0.0113,0.0114,0.0111,0.011,0.0107,0.0107,0.0104,0.0104,0.0111,0.0112,0.0122,0.0141,0.0136,0,0,0,0.0113,0.0118,0.0115,0.0122,0.0114,0.0121,0.011,0.0112,0.011,0.0104,0.0111,0.0112,0.0122,0.014,0.0136,0.0159,0,0,0,0.012,0.0119,0.0124,0.0121,0.0136,0.0121,0.013,0.0121,0.0113,0.0112,0.0112,0.0122,0.0141,0.0136,0.0173,0,0,0,0,0.0127,0.0133,0.0136,0.0145,0.0145,0.0149,0.0138,0.0129,0.0122,0.0114,0.0124,0.0136,0.0132,0.0144,0.0113,0.0113,0.0113,0.0113,0.0113,0.0143,0.0146,0.0162,0.0168,0.0172,0.0168,0.0161,0.0148,0.0136,0.0133,0.0145,0.0153,0.0167,0.0138,0.0138,0.0138,0.0138,0.0138,0.0138,0.0164,0.0175,0.0185,0.0201,0.0205,0.0213,0.0192,0.0177,0.0163,0.0156,0.0151,0.0157,0.0139,0.0139,0.0139,0.0139,0.0139,0.0139,0.0138,0.0178,0.0184,0.0197,0.0225,0.0247,0.0246,0.0257,0.023,0.0188,0.0183,0.0188,0.0162,0.016,0.0177,0.0177,0.0177,0.0178,0.0178,0.0178,0.0186,0.0199,0.0225,0.0254,0.0278,0.0304,0.0299,0.0283,0.0239,0.0216,0.0192,0.0167,0.0165,0.0162,0.0179,0.0178,0.0178,0.0178,0.0178,0.0201,0.0208,0.0245,0.0273,0.033,0.035,0.0352,0.0319,0.0296,0.0261,0.0222,0.022,0.0218,0.0216,0.0215,0.0247,0.0247,0.0248,0,0.0209,0.0216,0.0266,0.0311,0.0357,0.0377,0.0375,0.0354,0.029,0.0286,0.0273,0.023,0.0228,0.0227,0.0225,0.0225,0,0,0,0.0222,0.0235,0.0271,0.0316,0.0368,0.0374,0.0375,0.0359,0.0309,0.0294,0.0257,0.0254,0.0231,0.0182,0.0174,0.0172,0.0167,0,0]}]]